Location: Pouilly
(47.2624°N, 4.5558°E)
Time: 01:01:25
(UTC+00:00)

Daily predictions for brighter satellites

Satellite Brightness Start Highest point End
(mag) Time Altitude Azimuth Time Altitude Azimuth Time Altitude Azimuth
STARLINK-1240 4.4 00:00:48 10° WNW 00:03:59 36° WSW 00:03:59 36° WSW
STARLINK-1303 4.4 00:05:53 31° ESE 00:05:53 31° ESE 00:08:34 10° ENE
STARLINK-66 3.9 00:07:08 38° E 00:07:08 38° E 00:09:23 10° ENE
Cosmos 1570 Rocket 4.3 00:04:53 37° SSE 00:06:41 54° ESE 00:11:50 10° NNE
Cosmos 1763 Rocket 3.3 00:05:57 41° SSW 00:07:47 87° ESE 00:12:53 10° NNE
Cosmos 1709 Rocket 4.2 00:05:05 31° SSE 00:07:57 62° E 00:14:04 10° NNE
Cosmos 2227 Rocket 2.6 00:02:58 10° NW 00:08:24 47° WSW 00:10:10 35° SSW
STARLINK-1312 4.3 00:09:13 34° ESE 00:09:13 34° ESE 00:12:05 10° ENE
Landsat 4 4.1 00:05:01 10° N 00:08:39 53° WNW 00:09:24 44° WSW
NOSS 7 (E) 4.4 00:09:45 63° W 00:10:08 72° NW 00:13:13 10° NE
STARLINK-1263 4.5 00:12:53 26° E 00:12:53 26° E 00:14:35 10° ENE
Cosmos 2084 Rocket 3.6 00:08:05 10° NW 00:12:34 77° NE 00:14:58 27° SE
STARLINK-1259 4.4 00:13:47 26° E 00:13:47 26° E 00:15:32 10° ENE
STARLINK-1265 4.4 00:14:09 27° E 00:14:09 27° E 00:15:58 10° ENE
Cosmos 1356 Rocket 4.3 00:09:14 10° NNW 00:13:09 37° W 00:13:55 34° WSW
STARLINK-1285 4.4 00:14:38 27° E 00:14:38 27° E 00:16:25 10° ENE
STARLINK-1296 4.3 00:16:22 29° E 00:16:22 29° E 00:18:14 10° ENE
STARLINK-1260 4.2 00:17:14 29° E 00:17:14 29° E 00:19:08 10° ENE
SL-16 R/B 3.9 00:11:09 10° SE 00:16:36 35° ENE 00:22:06 10° N
Cosmos 1758 Rocket 3.8 00:15:28 42° SSE 00:16:45 61° E 00:21:08 10° NNE
STARLINK-1318 4.2 00:18:07 30° E 00:18:07 30° E 00:20:03 10° ENE
STARLINK-75 3.4 00:18:02 48° E 00:18:02 48° E 00:20:39 10° ENE
STARLINK-1275 4.1 00:18:59 31° E 00:18:59 31° E 00:20:58 10° ENE
STARLINK-1309 4.1 00:19:50 32° E 00:19:50 32° E 00:21:51 10° ENE
STARLINK-1282 4.1 00:20:42 32° E 00:20:42 32° E 00:22:45 10° ENE
STARLINK-1283 3.7 00:20:03 50° SSE 00:20:19 51° SE 00:24:20 10° ENE
STARLINK-1313 3.8 00:21:38 39° E 00:21:38 39° E 00:23:53 10° ENE
STARLINK-80 3.7 00:21:07 48° SE 00:21:07 48° SE 00:24:41 10° ENE
STARLINK-1279 3.7 00:22:32 39° E 00:22:32 39° E 00:24:49 10° ENE
STARLINK-1298 3.9 00:23:16 35° E 00:23:16 35° E 00:25:26 10° ENE
Nadezhda 1 Rocket 4.3 00:16:34 10° NNW 00:22:37 55° W 00:25:28 31° SSW
CZ-4 R/B 3.7 00:18:26 10° NNE 00:23:11 80° WNW 00:24:50 40° SSW
STARLINK-1293 3.8 00:24:09 36° E 00:24:09 36° E 00:26:22 10° ENE
STARLINK-1255 3.8 00:25:54 38° E 00:25:54 38° E 00:28:11 10° ENE
SL-16 R/B 4.1 00:22:44 13° SE 00:25:29 18° E 00:29:14 10° ENE
Cosmos 2208 Rocket 4.1 00:23:37 37° S 00:25:40 66° ESE 00:31:00 10° NNE
STARLINK-22 3.5 00:26:16 47° ESE 00:26:16 47° ESE 00:28:52 10° ENE
STARLINK-1297 3.6 00:26:32 47° SE 00:26:32 47° SE 00:29:48 10° ENE
STARLINK 1040 3.6 00:26:22 40° NNW 00:26:22 40° NNW 00:28:48 10° NE
STARLINK-1444 4.3 00:25:19 10° NW 00:26:51 26° N 00:26:51 26° N
STARLINK-1311 3.6 00:28:27 42° E 00:28:27 42° E 00:30:37 10° ENE
STARLINK-1452 4.4 00:25:57 10° NW 00:27:17 24° NNW 00:27:17 24° NNW
Cosmos 2285 Rocket 3.9 00:22:04 10° NNW 00:28:27 79° WSW 00:31:55 29° SSE
STARLINK-1398 4.5 00:27:18 10° NW 00:28:28 22° NNW 00:28:28 22° NNW
STARLINK-1436 (VISORSAT) 4.5 00:27:23 10° NW 00:28:34 22° NNW 00:28:34 22° NNW
CZ-2D R/B 3.6 00:27:47 10° NE 00:32:07 26° E 00:35:02 16° SE
USA 81 4.0 00:30:17 36° S 00:32:29 88° W 00:37:49 10° N
Cosmos-2242 2.9 00:28:41 10° N 00:32:57 82° E 00:34:23 41° SSE
Meteor 2-10 Rocket 3.5 00:28:20 10° NNW 00:33:25 63° W 00:35:15 37° SSW
USA 215 3.2 00:28:07 11° SE 00:34:28 67° SW 00:41:00 10° WNW
Cosmos 1953 Rocket 4.0 00:33:32 34° SSE 00:35:08 53° E 00:39:25 10° NNE
STARLINK-42 2.7 00:36:27 88° SSE 00:36:27 88° SSE 00:39:35 10° ENE
BREEZE-M R/B 3.4 00:30:01 10° W 00:36:32 69° NNW 00:39:52 10° ENE
Meteor 1-21 Rocket 4.3 00:34:27 33° SSW 00:37:05 70° WNW 00:42:54 10° N
STARLINK-1029 4.1 00:39:04 31° ESE 00:39:04 31° ESE 00:41:17 10° ENE
STARLINK-34 3.6 00:40:02 40° ESE 00:40:02 40° ESE 00:42:25 10° ENE
STARLINK-60 3.6 00:36:42 10° WNW 00:39:50 54° NNE 00:42:58 10° ESE
STARLINK-41 2.7 00:40:11 89° SE 00:40:11 89° SE 00:43:15 10° ENE
GP-B 4.0 00:36:33 10° NNE 00:40:48 42° E 00:42:59 24° SE
STARLINK-1272 3.1 00:42:02 62° S 00:42:19 66° SSE 00:45:51 10° ENE
SeaSat 1 4.5 00:38:58 10° N 00:42:44 22° NW 00:46:29 10° W
Cosmos 540 Rocket 3.4 00:41:07 36° SSW 00:43:16 89° ESE 00:48:26 10° NNE
STARLINK-62 3.4 00:43:45 45° ESE 00:43:45 45° ESE 00:46:16 10° ENE
STARLINK-1307 3.2 00:46:48 54° SSW 00:47:28 70° SSE 00:51:11 10° ENE
Helios 1B rocket 3.1 00:44:58 10° N 00:48:57 45° WNW 00:50:24 31° WSW
STARLINK-1290 3.2 00:50:11 51° SW 00:50:59 74° SSE 00:54:42 10° ENE
Cosmos 1980 Rocket 2.1 00:51:50 31° SSW 00:54:37 87° WNW 01:00:20 10° NNE
Cosmos 2074 Rocket 4.4 00:51:22 22° SSE 00:55:20 57° E 01:01:29 10° NNE
Meteor 1-29 3.4 00:54:17 10° N 00:57:31 46° WNW 00:58:11 40° WSW
STARLINK-1317 3.3 00:56:33 38° WSW 00:57:57 86° SSE 01:01:53 10° ENE
Cosmos 1455 3.1 00:56:13 10° NNW 00:59:33 31° W 01:00:05 30° WSW
Cosmos 1328 4.0 00:59:35 39° SW 01:00:49 59° WNW 01:04:46 10° N
STARLINK-55 3.5 01:00:33 30° W 01:01:52 56° NNW 01:05:02 10° ENE
STARLINK-1274 3.1 01:00:56 43° WSW 01:01:59 90° NNE 01:05:32 10° ENE
STARLINK-43 4.4 01:00:05 12° W 01:03:18 44° NNW 01:06:52 10° ENE
Cosmos 2369 4.4 01:02:04 21° WSW 01:05:38 46° NW 01:11:06 10° NNE
STARLINK-1291 3.3 01:04:15 36° WSW 01:05:41 87° NNW 01:09:25 10° ENE
Meteor 1-11 4.2 01:03:54 28° S 01:06:56 84° E 01:12:33 10° NNE
Cosmos 1703 3.8 01:05:53 34° SW 01:07:06 45° WNW 01:10:54 10° N
Lacrosse 4 Rocket 3.1 01:04:44 10° WNW 01:07:20 18° WSW 01:07:20 18° WSW
STARLINK-1264 3.3 01:07:26 33° WSW 01:09:00 83° NNW 01:12:45 10° ENE
ADEOS II 3.9 01:06:00 10° NE 01:10:08 23° E 01:14:14 10° SE
Cosmos 1825 Rocket 4.1 01:08:39 30° SW 01:10:18 45° WNW 01:14:31 10° N
Cosmos 2263 Rocket 2.2 01:05:01 10° NNW 01:10:40 83° ENE 01:15:58 11° SSE
Timation 1 Rocket 4.3 01:06:15 10° NNW 01:12:11 66° WSW 01:16:19 20° S
STARLINK-1295 4.5 01:11:26 30° SSE 01:12:18 33° SE 01:16:04 10° ENE
STARLINK-1267 3.3 01:10:39 31° WSW 01:12:21 80° NNW 01:16:07 10° ENE
STARLINK-29 3.7 01:09:28 10° WNW 01:12:37 53° NNE 01:15:45 10° E
NOSS 2-1 (C) 3.9 01:12:04 30° SSE 01:12:49 35° ESE 01:16:05 10° NE
STARLINK-28 3.9 01:11:33 20° W 01:13:27 46° NNW 01:16:34 10° NE
Cosmos 2297 Rocket 4.1 01:11:40 10° WNW 01:13:47 12° W 01:14:46 12° WSW
SL-4 R/B 2.3 01:09:20 10° WNW 01:14:13 84° SSW 01:18:55 10° ESE
UNK 3.8 01:11:40 20° SSE 01:14:46 76° ENE 01:19:22 10° N
STARLINK-64 3.4 01:14:12 43° S 01:14:56 52° SE 01:18:27 10° ENE
USA 229 DEB 3.9 01:08:55 10° NW 01:16:13 88° NE 01:23:51 10° SE
USA 229 3.9 01:09:02 10° NW 01:16:19 88° NE 01:23:58 10° SE
NOSS 3-1 (C) 4.0 01:09:34 10° NW 01:17:05 86° SW 01:25:44 10° SE
STARLINK-1287 4.4 01:16:12 31° S 01:17:15 36° SE 01:21:05 10° ENE
NOSS 2-1 (D) 3.7 01:16:50 33° SSE 01:17:42 39° ESE 01:21:03 10° NE
Cosmos 372 Rocket 4.3 01:13:27 10° NNW 01:18:24 48° WSW 01:20:47 28° SSW
STARLINK-1207 3.5 01:17:09 26° WSW 01:19:08 73° NNW 01:22:53 10° ENE
NPP 4.1 01:14:02 10° NNE 01:19:21 57° E 01:22:54 21° S
Cosmos 2184 Rocket 4.0 01:16:27 23° S 01:20:26 83° E 01:26:38 10° N
CZ-4C R/B 3.6 01:16:58 10° W 01:21:51 35° NNW 01:27:38 10° NNE
STARLINK-1266 3.5 01:20:25 24° WSW 01:22:32 70° NNW 01:26:18 10° ENE
BREEZE-M DEB (TANK) 1.5 01:23:14 64° SE 01:23:14 64° SE 01:25:34 10° ENE
STARLINK-33 3.9 01:21:41 18° W 01:23:39 44° NNW 01:26:40 10° NE
Cosmos 1892 4.3 01:21:53 15° SE 01:24:24 29° E 01:27:42 10° NNE
NOSS 3-1 (A) 4.2 01:17:46 10° NW 01:25:14 78° NE 01:33:51 10° SE
STARLINK-1299 4.0 01:24:06 32° SSW 01:25:40 49° SE 01:29:48 10° ENE
STARLINK-1284 3.6 01:23:40 22° WSW 01:25:57 67° NNW 01:29:41 10° ENE
STARLINK-26 4.1 01:24:27 15° W 01:27:07 45° NNW 01:30:27 10° ENE
STARLINK-1302 4.2 01:25:46 31° S 01:27:10 42° SE 01:31:06 10° ENE
BREEZE-M DEB (TANK) 2.0 01:25:09 10° WNW 01:27:39 48° N 01:30:01 10° E
STARLINK-1258 3.7 01:27:00 21° WSW 01:29:23 64° NNW 01:33:07 10° ENE
Cosmos 1869 3.6 01:26:25 10° N 01:30:16 63° ENE 01:33:00 18° SSE
Cosmos 2150 Rocket 4.2 01:26:04 10° NNW 01:31:02 50° WSW 01:33:54 24° S
STARLINK-1273 4.1 01:30:32 30° SSW 01:32:06 46° SE 01:36:05 10° ENE
STARLINK-1292 3.7 01:30:17 19° W 01:32:50 62° NNW 01:36:34 10° ENE
Cosmos 2322 Rocket 2.7 01:29:42 20° S 01:33:22 50° ESE 01:38:47 10° NE
STARLINK-1288 4.0 01:35:19 29° SSW 01:37:04 50° SE 01:41:05 10° ENE
STARLINK-61 4.2 01:35:51 28° S 01:37:13 37° SE 01:40:51 10° ENE
STARLINK-1268 3.8 01:36:29 18° W 01:38:33 46° NNW 01:41:33 10° NE
STARLINK-1289 3.9 01:36:51 16° W 01:39:42 57° NNW 01:43:25 10° ENE
Cosmos 1697 Rocket 4.3 01:36:20 10° WSW 01:41:05 27° NW 01:45:52 10° N
Resurs 1-4 Rocket 2.1 01:36:00 10° NNE 01:41:20 83° WNW 01:44:54 22° SSW
STARLINK-1301 4.0 01:38:34 14° W 01:41:41 55° NNW 01:45:29 10° ENE
STARLINK-1308 3.8 01:40:08 28° SSW 01:42:04 54° SE 01:46:08 10° ENE
STARLINK-66 4.3 01:39:32 11° W 01:42:28 37° NNW 01:45:30 10° NE
Cosmos 1076 Rocket 4.2 01:39:51 16° SSE 01:43:05 51° E 01:47:20 10° NNE
STARLINK-1303 4.0 01:40:12 15° W 01:43:12 55° NNW 01:46:54 10° ENE
Cosmos 1400 Rocket 3.9 01:39:39 10° NNW 01:43:17 30° W 01:44:45 24° SW
STARLINK-1316 3.9 01:41:31 15° W 01:43:49 44° NNW 01:46:50 10° NE
STARLINK-1257 3.9 01:42:21 15° W 01:44:42 43° NNW 01:47:44 10° NE
Cosmos 1125 Rocket 3.5 01:39:35 10° NNW 01:44:43 61° WSW 01:48:54 15° S
STARLINK-1256 3.9 01:43:17 14° W 01:45:41 43° NNW 01:48:41 10° NE
STARLINK-58 3.5 01:44:00 19° W 01:46:05 53° NNW 01:49:13 10° ENE
STARLINK-1213 4.0 01:44:09 14° W 01:46:35 42° NNW 01:49:35 10° NE
STARLINK-1312 4.0 01:43:32 13° W 01:46:42 53° NNW 01:50:24 10° ENE
Meteor 2-17 Rocket 4.4 01:42:53 20° SSW 01:47:21 83° W 01:53:31 10° N
STARLINK-1263 4.0 01:45:01 14° W 01:47:28 42° NNW 01:50:28 10° NE
STARLINK-52 3.0 01:44:46 10° WNW 01:48:00 81° NNE 01:51:12 10° ESE
STARLINK-1259 4.0 01:45:54 13° W 01:48:24 41° NNW 01:51:24 10° NE
STARLINK-1265 4.0 01:46:15 13° W 01:48:48 42° NNW 01:51:50 10° NE
STARLINK-1285 4.0 01:46:45 13° W 01:49:17 41° NNW 01:52:17 10° NE
STARLINK-1296 4.0 01:48:29 13° W 01:51:05 40° NNW 01:54:05 10° NE
STARLINK-1304 3.7 01:49:41 24° SW 01:51:59 63° SE 01:56:06 10° ENE
STARLINK-1260 4.1 01:49:21 12° W 01:52:00 40° NNW 01:54:59 10° NE
Cosmos 1408 3.9 01:49:31 12° SSE 01:52:34 36° E 01:55:58 10° NNE
STARLINK-1318 4.1 01:50:13 12° W 01:52:55 40° NNW 01:55:54 10° NE
STARLINK-75 4.4 01:50:41 10° W 01:53:43 36° NNW 01:56:45 10° NE
STARLINK-1275 4.1 01:51:06 12° W 01:53:49 39° NNW 01:56:48 10° NE
STARLINK-1309 4.1 01:51:57 11° W 01:54:42 39° NNW 01:57:41 10° NE
Cosmos 2154 Rocket 4.0 01:49:51 18° S 01:54:45 85° W 02:01:01 10° N
STARLINK-1282 4.1 01:52:49 11° W 01:55:37 39° NNW 01:58:34 10° NE
STARLINK-48 3.6 01:53:48 17° WSW 01:56:40 73° NNW 02:00:34 10° ENE
STARLINK-1313 4.3 01:53:49 10° W 01:56:45 36° NNW 01:59:41 10° NE
GEOS 3 Rocket 3.6 01:52:00 10° SE 01:57:12 79° SW 02:02:31 10° NW
STARLINK-1279 4.3 01:54:45 10° W 01:57:41 36° NNW 02:00:38 10° NE
STARLINK-1278 3.6 01:55:21 21° SW 01:58:08 77° SSE 02:02:24 10° ENE
STARLINK-1298 4.2 01:55:23 10° W 01:58:17 38° NNW 02:01:15 10° NE
Cosmos 1825 3.8 01:55:55 10° SSE 01:59:12 29° E 02:02:30 10° NNE
STARLINK-1293 4.2 01:56:16 10° W 01:59:13 37° NNW 02:02:11 10° NE
STARLINK-80 4.3 01:55:37 10° W 01:59:18 46° NNW 02:02:59 10° ENE
STARLINK-1283 4.4 01:55:54 10° W 01:59:54 49° NNW 02:03:56 10° ENE
STARLINK-1280 3.6 01:57:08 20° SW 01:59:59 79° SSE 02:04:15 10° ENE
SL-16 R/B 2.9 01:55:29 17° SSW 02:00:03 47° W 02:06:01 10° NNW
Iridium 2 4.0 01:57:19 10° NNW 02:00:59 49° W 02:03:12 21° SSW
STARLINK-1255 4.2 01:58:06 10° W 02:01:02 37° NNW 02:03:59 10° NE
SL-08 R/B 3.9 01:57:24 10° SSE 02:01:54 55° ENE 02:06:25 10° N
STARLINK-22 4.3 01:58:55 10° W 02:01:57 37° NNW 02:04:58 10° NE
Meteor 2-2 Rocket 4.4 01:57:04 10° NNW 02:03:03 67° W 02:08:43 11° S
STARLINK-1311 4.4 02:00:24 10° W 02:03:06 32° NNW 02:05:50 10° NE
STARLINK-1297 4.3 02:00:30 10° W 02:03:58 44° NNW 02:07:28 10° ENE
Cosmos 1844 Rocket 3.5 01:59:39 10° NNW 02:05:09 53° ENE 02:10:36 10° SE
NOSS 2-1 (E) 3.1 02:04:58 21° SW 02:07:04 72° NW 02:10:48 10° NE
STARLINK-1286 3.6 02:05:37 18° SW 02:08:37 82° SSE 02:12:49 10° ENE
SL-16 R/B 2.3 02:04:36 18° SSW 02:08:54 76° WNW 02:14:38 10° NNE
STARLINK-1281 3.6 02:08:48 18° SW 02:11:52 83° SSE 02:16:01 10° ENE
IRIDIUM 104 4.3 02:07:38 14° S 02:12:12 81° W 02:17:28 10° N
CZ-2D R/B 2.6 02:07:24 10° N 02:12:23 47° WNW 02:16:21 16° SW
Cosmos 2221 3.1 02:09:10 10° NNW 02:13:15 40° W 02:16:17 17° SSW
STARLINK-1377 4.5 02:09:37 10° WNW 02:13:33 51° NNE 02:17:28 10° E
STARLINK-44 4.5 02:11:49 17° S 02:13:52 30° SE 02:17:04 10° ENE
STARLINK-1029 3.9 02:11:18 11° W 02:14:14 44° NNW 02:17:19 10° NE
STARLINK-34 4.2 02:12:15 10° W 02:15:08 37° NNW 02:18:03 10° NE
STARLINK-37 4.3 02:13:33 18° SSW 02:15:40 32° SE 02:18:57 10° ENE
STARLINK-60 3.8 02:13:01 10° W 02:15:46 27° SW 02:18:31 10° SSE
STARLINK-1310 3.6 02:13:35 16° WSW 02:16:51 88° SE 02:21:01 10° ENE
STARLINK-36 4.4 02:14:56 17° SSW 02:17:06 31° SE 02:20:21 10° ENE
FALCON 9 DEB 3.1 02:13:51 10° WNW 02:17:19 89° NNE 02:20:47 10° ESE
STARLINK-1353 4.4 02:13:58 10° WNW 02:17:55 53° NNE 02:21:51 10° E
USA 215 4.4 02:15:22 14° SSW 02:18:18 19° WSW 02:22:46 10° W
Nadezhda 3 Rocket 4.3 02:12:30 10° NNW 02:18:37 54° W 02:24:39 10° SSW
STARLINK-62 4.2 02:16:07 10° W 02:18:58 35° NNW 02:21:50 10° NE
Cosmos 1315 Rocket 3.7 02:15:28 10° NNW 02:18:58 31° W 02:21:25 16° SSW
STARLINK-63 4.2 02:18:10 17° SSW 02:20:26 35° SE 02:23:46 10° ENE
IRIDIUM 114 4.4 02:16:46 13° SSW 02:21:22 68° W 02:26:36 10° N
STARLINK-35 4.3 02:19:32 17° SSW 02:21:48 33° SE 02:25:04 10° ENE
STARLINK-1319 3.6 02:18:21 15° WSW 02:21:49 87° NNW 02:25:58 10° ENE
CBERS-1 4.1 02:16:58 10° N 02:22:06 73° WNW 02:26:39 13° SSW
STARLINK-1375 4.3 02:18:21 10° WNW 02:22:18 56° NNE 02:26:16 10° E
STARLINK-51 4.2 02:21:14 16° SSW 02:23:36 35° SE 02:26:55 10° ENE
STARLINK-30 4.2 02:22:49 16° SSW 02:25:16 36° SE 02:28:38 10° ENE
STARLINK-72 4.1 02:24:13 16° SSW 02:26:39 37° SE 02:29:58 10° ENE
STARLINK-1350 4.2 02:22:41 10° WNW 02:26:40 58° NNE 02:30:38 10° ESE
STARLINK-1277 3.7 02:23:08 13° WSW 02:26:48 82° NNW 02:30:57 10° ENE
Shenzhou-11 Module 2.5 02:26:47 21° SW 02:27:42 27° S 02:29:51 10° ESE
STARLINK-59 4.0 02:27:25 16° SSW 02:29:59 41° SE 02:33:21 10° ENE
Cosmos 2058 3.4 02:27:00 15° SSW 02:30:18 47° WNW 02:34:24 10° N
STARLINK-1352 4.1 02:26:52 10° WNW 02:30:50 61° NNE 02:34:48 10° ESE
Cosmos 2360 Rocket 2.3 02:25:44 12° SSW 02:30:58 76° ESE 02:36:37 10° NNE
STARLINK-56 4.0 02:29:04 15° SSW 02:31:44 41° SE 02:35:10 10° ENE
STARLINK-1276 3.7 02:27:56 12° WSW 02:31:48 78° NNW 02:35:58 10° ENE
STARLINK-73 4.0 02:30:38 15° SSW 02:33:22 42° SE 02:36:49 10° ENE
STARLINK-38 3.9 02:32:12 15° SSW 02:34:59 43° SE 02:38:27 10° ENE
STARLINK-1368 4.1 02:31:33 10° WNW 02:35:33 64° NNE 02:39:33 10° ESE
STARLINK-65 3.9 02:33:46 14° SSW 02:36:37 45° SE 02:40:06 10° ENE
STARLINK-1305 3.8 02:32:42 10° WSW 02:36:46 73° NNW 02:40:55 10° ENE
STARLINK-68 3.8 02:34:23 14° SW 02:37:17 48° SE 02:40:50 10° ENE
STARLINK-1306 3.9 02:33:15 10° WSW 02:37:27 71° NNW 02:41:39 10° ENE
STARLINK-53 3.8 02:35:24 14° SW 02:38:19 48° SE 02:41:50 10° ENE
STARLINK-1012 4.5 02:35:47 12° SSW 02:39:11 38° SE 02:43:03 10° ENE
Cosmos 1980 Rocket 4.1 02:35:27 10° W 02:39:29 20° NW 02:43:33 10° N
CZ-4B R/B 4.4 02:34:56 10° N 02:39:47 38° WNW 02:44:30 11° SW
STARLINK-1369 4.0 02:35:59 10° WNW 02:40:00 67° NNE 02:44:01 10° ESE
STARLINK-50 3.9 02:37:26 13° SW 02:40:35 47° SE 02:44:16 10° ENE
STARLINK-1262 3.8 02:37:38 10° WSW 02:41:47 69° NNW 02:45:56 10° ENE
SL-24 DEB 4.3 02:37:22 10° N 02:42:00 85° E 02:46:36 10° S
STARLINK-1372 3.9 02:40:09 10° WNW 02:44:09 70° NNE 02:48:07 10° ESE
Cosmos 2333 Rocket 3.4 02:39:25 10° S 02:44:36 39° ESE 02:49:49 10° NE
STARLINK-71 3.9 02:41:45 12° SW 02:45:19 54° SE 02:49:16 10° ENE
Meteor 1-28 Rocket 3.1 02:42:37 10° S 02:46:22 77° WSW 02:50:07 10° NNW
STARLINK-1300 3.9 02:42:38 10° WSW 02:46:46 66° NNW 02:50:54 10° ENE
Landsat 5 4.3 02:43:16 10° SSE 02:47:42 61° ENE 02:52:05 10° N
STARLINK-29 3.8 02:45:50 10° WNW 02:48:37 28° SW 02:51:23 10° SSE
Cosmos 2219 Rocket 3.3 02:43:35 10° S 02:48:42 39° ESE 02:53:51 10° NE
STARLINK-1378 3.8 02:44:53 10° WNW 02:48:54 74° NNE 02:52:56 10° ESE
STARLINK-1026 4.3 02:45:20 11° SSW 02:49:06 45° SE 02:53:03 10° ENE
Cosmos 1727 Rocket 4.3 02:43:03 10° N 02:49:14 70° E 02:55:23 10° SSE
Cosmos 2322 4.2 02:44:24 10° S 02:50:00 60° ESE 02:55:38 10° NNE
ADEOS II 2.4 02:45:01 10° N 02:50:09 54° WNW 02:55:16 10° SW
STARLINK-1295 4.0 02:47:37 10° WSW 02:51:44 62° NNW 02:55:52 10° ENE
STARLINK-64 4.3 02:49:00 10° W 02:52:26 42° NNW 02:55:53 10° ENE
IRS-1D 4.3 02:47:56 10° N 02:52:52 41° WNW 02:57:41 10° SW
STARLINK-1379 3.7 02:49:23 10° WNW 02:53:25 79° NNE 02:57:27 10° ESE
SL-4 R/B 3.4 02:49:41 10° W 02:53:28 23° SW 02:57:07 10° S
IDEFIX/ARIANE 42P 3.2 02:48:31 10° NNE 02:53:45 59° E 02:58:54 10° S
Cosmos 2263 Rocket 3.8 02:50:33 10° WNW 02:53:49 16° W 02:57:05 10° SW
STARLINK-1013 4.2 02:50:08 10° SW 02:54:04 48° SE 02:58:04 10° ENE
Cosmos 1606 2.8 02:50:52 10° N 02:54:40 81° E 02:58:27 10° SSE
ERS-2 2.1 02:52:20 10° S 02:55:58 67° WSW 02:59:38 10° NNW
STARLINK-1287 4.1 02:52:37 10° WSW 02:56:44 59° NNW 03:00:50 10° ENE
STARLINK-25 3.3 02:53:37 10° SW 02:57:01 64° SSE 03:00:27 10° ENE
STARLINK-1329 3.7 02:53:12 10° WNW 02:57:16 82° NNE 03:01:19 10° ESE
ATLAS 5 CENTAUR R/B 3.9 02:56:33 10° SSE 02:59:01 15° ESE 03:01:37 10° ENE
STARLINK-1009 4.1 02:55:00 10° SW 02:59:01 52° SE 03:03:04 10° ENE
BREEZE-M R/B 1.9 02:55:44 10° WNW 02:59:12 85° SSW 03:01:39 10° ESE
Cosmos 2341 Rocket 4.4 02:53:08 10° SSW 02:59:18 51° WNW 03:05:28 10° N
ARIANE 5 R/B 2.5 02:54:24 10° N 02:59:24 71° WNW 03:04:21 10° SSW
Cosmos 1892 4.2 02:57:05 10° SW 03:00:06 22° WNW 03:03:08 10° NNW
STARLINK-1362 3.6 02:57:45 10° WNW 03:01:49 87° NE 03:05:52 10° ESE
STARLINK-1320 2.8 03:00:00 10° WNW 03:03:06 66° SSW 03:06:11 10° SE
STARLINK-1322 2.8 03:00:21 10° WNW 03:03:27 65° SSW 03:06:33 10° SE
STARLINK-1324 2.8 03:00:40 10° WNW 03:03:46 65° SSW 03:06:51 10° SE
STARLINK-1015 4.0 02:59:56 10° SW 03:03:58 56° SE 03:08:03 10° ENE
CZ-2C R/B 3.2 03:00:16 10° NNE 03:04:01 62° E 03:07:49 10° S
STARLINK-1294 2.8 03:00:57 10° WNW 03:04:05 65° SSW 03:07:12 10° SE
STARLINK-1261 2.8 03:01:22 10° WNW 03:04:27 64° SSW 03:07:32 10° SE
CZ-2D R/B 3.6 03:00:11 10° NNE 03:04:28 83° WNW 03:08:49 10° SSW
STARLINK-1325 2.8 03:01:42 10° WNW 03:04:49 64° SSW 03:07:53 10° SE
STARLINK-1333 2.8 03:02:04 10° WNW 03:05:10 63° SSW 03:08:15 10° SE
STARLINK-1334 2.8 03:02:22 10° WNW 03:05:27 63° SSW 03:08:32 10° SE
STARLINK-1299 4.4 03:01:33 10° W 03:05:43 51° NNW 03:09:54 10° ENE
STARLINK-1326 2.8 03:02:41 10° WNW 03:05:46 62° SSW 03:08:52 10° SE
STARLINK-1323 2.8 03:03:04 10° WNW 03:06:10 62° SSW 03:09:14 10° SE
STARLINK-1373 3.6 03:02:14 10° WNW 03:06:16 89° SSW 03:10:18 10° ESE
STARLINK-1349 2.8 03:03:22 10° WNW 03:06:28 62° SSW 03:09:32 10° SE
STARLINK-1302 4.2 03:02:38 10° W 03:06:43 54° NNW 03:10:48 10° ENE
STARLINK-1336 2.8 03:03:41 10° WNW 03:06:47 61° SSW 03:09:51 10° SE
Cosmos 1408 Rocket 3.9 03:02:35 10° S 03:06:52 68° E 03:11:09 10° NNE
STARLINK-1331 2.8 03:04:04 10° WNW 03:07:10 61° SSW 03:10:14 10° SE
STARLINK-1344 2.9 03:04:22 10° WNW 03:07:28 60° SSW 03:10:32 10° SE
STARLINK-1343 2.9 03:04:45 10° WNW 03:07:50 60° SSW 03:10:55 10° SE
STARLINK-1346 2.9 03:05:01 10° WNW 03:08:09 60° SSW 03:11:15 10° SE
STARLINK-24 3.6 03:04:23 10° SW 03:08:23 78° SSE 03:12:24 10° ENE
STARLINK-1328 2.9 03:05:29 10° WNW 03:08:34 59° SSW 03:11:38 10° SE
STARLINK-1354 2.9 03:05:46 10° WNW 03:08:51 59° SSW 03:11:55 10° SE
Cosmos 1844 3.8 03:03:09 10° NNW 03:08:55 67° WSW 03:14:39 10° SSE
STARLINK-1016 3.9 03:04:51 10° SW 03:08:56 61° SE 03:13:02 10° ENE
STARLINK-1347 2.9 03:06:03 10° WNW 03:09:08 58° SSW 03:12:12 10° SE
STARLINK-1357 2.9 03:06:29 10° WNW 03:09:34 58° SSW 03:12:38 10° SE
STARLINK-1335 2.9 03:06:46 10° WNW 03:09:51 58° SSW 03:12:55 10° SE
STARLINK-1390 3.5 03:06:54 10° WNW 03:10:57 84° SSW 03:15:01 10° ESE
